Weather History for Fort Myers Airport, FL

Change the Weather History Date:

Saturday, March 9, 2013

  Actual Average Record
Temperature  
Mean Temperature 62 °F -  
Max Temperature 77 °F 78 °F 90 °F (1974)
Min Temperature 48 °F 56 °F 37 °F (2001)
Degree Days  
Heating Degree Days 2    
Growing Degree Days 12 (Base 50)    
Moisture  
Dew Point 46 °F    
Average Humidity 58    
Maximum Humidity 89    
Minimum Humidity 26    
Precipitation  
Precipitation 0.00 in - - ()
Sea Level Pressure  
Sea Level Pressure 30.16 in    
Wind  
Wind Speed 7 mph (ENE)    
Max Wind Speed 14 mph    
Max Gust Speed 21 mph    
Visibility 10 miles    
Events      
Averages and records for this station are not official NWS values.
T = Trace of Precipitation, MM = Missing Value Source: NWS Daily Summary

Daily Weather History Graph

Daily Weather History Graph

Search for Another Location

Airport:

Trip Planner

Search our weather history database for the weather conditions in past years. The results will help you decide how hot, cold, wet, or windy it might be!

Date:

Astronomy

Mar. 09, 2013 Rise Set
Actual Time 6:42 AM EST 6:32 PM EST
Civil Twilight 6:19 AM EST 6:55 PM EST
Nautical Twilight 5:52 AM EST 7:22 PM EST
Astronomical Twilight 5:25 AM EST 7:49 PM EST
Moon 4:55 AM EST (3/9) 4:40 PM EST (3/9)
Length of Visible Light 12h 36m
Length of Day
11h 50m
Waning Crescent, 5% of the Moon is Illuminated
Mar 9
Waning Crescent
Mar 11
New
Mar 19
First Quarter
Mar 27
Full
Apr 3
Last Quarter

Hourly Weather History & Observations

Time (EST) Temp. Dew Point Humidity Pressure Visibility Wind Dir Wind Speed Gust Speed Precip Events Conditions
12:53 AM 55.0 °F 46.9 °F 74% 30.18 in 10.0 mi NE 4.6 mph - N/A   Clear
1:53 AM 53.1 °F 46.9 °F 80% 30.16 in 9.0 mi ENE 4.6 mph - N/A   Clear
2:53 AM 52.0 °F 46.0 °F 80% 30.15 in 10.0 mi NNE 3.5 mph - N/A   Clear
3:53 AM 50.0 °F 45.0 °F 83% 30.14 in 8.0 mi NE 3.5 mph - N/A   Clear
4:53 AM 50.0 °F 46.0 °F 86% 30.15 in 8.0 mi NE 4.6 mph - N/A   Clear
5:53 AM 50.0 °F 46.0 °F 86% 30.17 in 9.0 mi NE 5.8 mph - N/A   Clear
6:53 AM 48.0 °F 45.0 °F 89% 30.17 in 7.0 mi ENE 4.6 mph - N/A   Clear
7:53 AM 54.0 °F 46.9 °F 77% 30.19 in 10.0 mi NE 5.8 mph - N/A   Clear
8:53 AM 61.0 °F 48.9 °F 64% 30.20 in 10.0 mi ENE 10.4 mph - N/A   Clear
9:53 AM 68.0 °F 48.9 °F 50% 30.21 in 10.0 mi East 10.4 mph - N/A   Clear
10:53 AM 72.0 °F 45.0 °F 38% 30.20 in 10.0 mi ENE 8.1 mph - N/A   Clear
11:53 AM 75.0 °F 42.1 °F 31% 30.19 in 10.0 mi ENE 4.6 mph - N/A   Clear
12:53 PM 75.9 °F 42.1 °F 30% 30.17 in 10.0 mi East 8.1 mph - N/A   Clear
1:53 PM 75.9 °F 39.0 °F 26% 30.12 in 10.0 mi East 11.5 mph 20.7 mph N/A   Clear
2:53 PM 77.0 °F 42.1 °F 29% 30.13 in 10.0 mi East 9.2 mph - N/A   Clear
3:53 PM 75.0 °F 44.1 °F 33% 30.11 in 10.0 mi East 12.7 mph - N/A   Clear
4:53 PM 75.0 °F 41.0 °F 29% 30.12 in 10.0 mi East 12.7 mph - N/A   Clear
5:53 PM 72.0 °F 44.1 °F 37% 30.12 in 10.0 mi East 6.9 mph - N/A   Clear
6:53 PM 69.1 °F 45.0 °F 42% 30.12 in 10.0 mi East 10.4 mph - N/A   Clear
7:53 PM 66.9 °F 50.0 °F 54% 30.16 in 10.0 mi East 13.8 mph - N/A   Clear
8:53 PM 64.0 °F 51.1 °F 63% 30.19 in 10.0 mi East 10.4 mph - N/A   Clear
9:53 PM 62.1 °F 51.1 °F 67% 30.19 in 10.0 mi East 6.9 mph - N/A   Clear
10:53 PM 62.1 °F 51.1 °F 67% 30.18 in 10.0 mi East 6.9 mph - N/A   Clear
11:53 PM 60.1 °F 52.0 °F 75% 30.17 in 10.0 mi ENE 6.9 mph - N/A   Clear